{"data":{"norad_id":63227,"intl_designator":"2025-052T","name":"CLARITY-1","alt_names":[],"object_type":"PAYLOAD","status":"ACTIVE","operator":null,"country":"US","launch_date":"2025-03-15","launch_site_code":"AFWTR","launch_vehicle":null,"mission":null,"orbit_class":"UNKNOWN","rcs_meters":null,"size_class":null,"mass_kg":null,"dimensions":null,"purposes":[],"wikipedia_slug":null,"has_3d_model":false,"image_url":null,"decayed_at":null,"tle_current":{"epoch":"2026-06-10T03:47:02.833152Z","epoch_age_seconds":9151190,"freshness":"OLD","line1":"1 63227U 25052T   26161.15767168  .09211707  26169-5  12257-3 0  9997","line2":"2 63227  97.3825  82.7091 0009598 247.2263 112.8028 16.48960409 70590","mean_motion":16.48960409,"eccentricity":0.0009598,"inclination_deg":97.3825,"raan_deg":82.7091,"arg_perigee_deg":247.2263,"mean_anomaly_deg":112.8028,"bstar":0.00012257,"rev_number":7059,"period_min":87.327748570584,"perigee_km":135.81648437389,"apogee_km":148.33268252949,"semimajor_km":6520.2115834517,"source":"CELESTRAK","updated_at":"2026-06-10T09:00:28.549939Z"}}}